Location: Cerda�ola
(41.4919°N, 2.1403°E)
Time: 19:38:52
(UTC+00:00)

Lacrosse 4 Rocket - Pass Details

Date: 17 August 2020
Orbit: 544 x 615 km, 68.0° (Epoch: 01 October)

Event Time Altitude Azimuth Distance (km) Brightness Sun altitude
Exits shadow 21:44:01 44° 299° (WNW) 805 2.4 -27.6°
Maximum altitude 21:44:06 44° 302° (WNW) 804 2.4 -27.6°
Drops below altitude 10° 21:48:06 10° 16° (NNE) 1,866 4.5 -28.1°
Sets 21:50:23 0° 23° (NNE) 2,755 5.3 -28.3°
